McMinnville, OR

10:27 AM PST on November 21, 2019 (GMT -0800)
McMinnville Municipal

Weather History for KMMV - August, 2019

Change the Weather History Date:

Thursday, August 22, 2019

  Actual Average Record
Temperature  
Mean Temperature 66 °F 66 °F  
Max Temperature 78 °F 82 °F 100 °F (1915)
Min Temperature 54 °F 50 °F 32 °F (1955)
Degree Days  
Heating Degree Days 0 1  
Month to date heating degree days 7 22  
Since 1 June heating degree days 116  
Since 1 July heating degree days 18 66  
Cooling Degree Days 1 2  
Month to date cooling degree days 83 63  
Year to date cooling degree days 199 163  
Since 1 June cooling degree days 196  
Growing Degree Days 16 (Base 50)    
Moisture  
Dew Point 51 °F    
Average Humidity 63    
Maximum Humidity 93    
Minimum Humidity 33    
Precipitation  
Precipitation 0.00 in 0.02 in 0.45 in (2001)
Month to date precipitation 0.01 0.35  
Year to date precipitation 17.16 22.10  
Sea Level Pressure  
Sea Level Pressure 30.05 in    
Wind  
Wind Speed 4 mph (North)    
Max Wind Speed 13 mph    
Max Gust Speed 20 mph    
Visibility 10 miles    
Events      
T = Trace of Precipitation, MM = Missing Value Source: NWS Daily Summary

Daily Weather History Graph

Daily Weather History Graph

Search for Another Location

Airport or City:

Astronomy

Aug. 22, 2019 Rise Set
Actual Time 6:22 AM PDT 8:07 PM PDT
Civil Twilight 5:50 AM PDT 8:39 PM PDT
Nautical Twilight 5:12 AM PDT 9:17 PM PDT
Astronomical Twilight 4:30 AM PDT 9:58 PM PDT
Moon 11:41 PM PDT (8/22) 1:21 PM PDT (8/22)
Length of Visible Light 14h 48m
Length of Day
13h 45m
Waning Gibbous, 58% of the Moon is Illuminated
Aug 22
Waning Gibbous
Aug 23
Last Quarter
Aug 30
New
Sep 5
First Quarter
Sep 13
Full

Hourly Weather History & Observations

Time (PDT) Temp. Dew Point Humidity Pressure Visibility Wind Dir Wind Speed Gust Speed Precip Events Conditions
12:24 AM 62.1 °F 55.9 °F 80% 30.03 in 10.0 mi Calm Calm - N/A   Overcast
12:53 AM 61.0 °F 55.9 °F 83% 30.02 in 10.0 mi WNW 6.9 mph - N/A   Overcast
1:20 AM 61.0 °F 55.0 °F 81% 30.03 in 10.0 mi NW 3.5 mph - N/A   Overcast
1:53 AM 60.1 °F 55.0 °F 83% 30.03 in 10.0 mi Calm Calm - N/A   Overcast
2:53 AM 59.0 °F 53.1 °F 81% 30.05 in 10.0 mi ENE 3.5 mph - N/A   Overcast
3:53 AM 57.9 °F 52.0 °F 81% 30.06 in 10.0 mi ENE 3.5 mph - N/A   Overcast
4:53 AM 57.0 °F 51.1 °F 81% 30.06 in 10.0 mi NE 3.5 mph - N/A   Overcast
5:53 AM 55.9 °F 52.0 °F 87% 30.08 in 10.0 mi NNW 3.5 mph - N/A   Overcast
6:53 AM 54.0 °F 51.1 °F 90% 30.09 in 10.0 mi NNE 3.5 mph - N/A   Mostly Cloudy
7:53 AM 55.0 °F 51.1 °F 86% 30.10 in 10.0 mi NW 3.5 mph - N/A   Partly Cloudy
8:04 AM 55.9 °F 51.1 °F 84% 30.10 in 10.0 mi NW 4.6 mph - N/A   Mostly Cloudy
8:53 AM 59.0 °F 51.1 °F 75% 30.10 in 10.0 mi Variable 3.5 mph - N/A   Clear
9:53 AM 62.1 °F 48.9 °F 62% 30.10 in 10.0 mi WNW 3.5 mph - N/A   Clear
10:53 AM 66.0 °F 48.0 °F 52% 30.09 in 10.0 mi NNE 3.5 mph - N/A   Clear
11:36 AM 66.9 °F 48.0 °F 51% 30.10 in 6.0 mi Calm Calm - N/A   Haze
11:53 AM 68.0 °F 48.0 °F 49% 30.09 in 10.0 mi North 6.9 mph - N/A   Clear
12:53 PM 71.1 °F 48.0 °F 44% 30.09 in 10.0 mi Calm Calm - N/A   Clear
1:53 PM 73.0 °F 48.0 °F 41% 30.07 in 10.0 mi WNW 8.1 mph - N/A   Clear
2:53 PM 75.0 °F 46.9 °F 37% 30.04 in 10.0 mi Variable 5.8 mph - N/A   Clear
3:53 PM 75.9 °F 45.0 °F 33% 30.02 in 10.0 mi ENE 3.5 mph - N/A   Clear
4:53 PM 77.0 °F 46.9 °F 34% 30.01 in 10.0 mi Variable 4.6 mph - N/A   Clear
5:53 PM 77.0 °F 48.9 °F 37% 30.00 in 10.0 mi NE 8.1 mph - N/A   Clear
6:53 PM 73.9 °F 48.9 °F 41% 29.99 in 10.0 mi ENE 8.1 mph - N/A   Clear
7:53 PM 70.0 °F 51.1 °F 51% 30.00 in 10.0 mi NE 6.9 mph - N/A   Clear
8:53 PM 64.9 °F 52.0 °F 63% 30.01 in 10.0 mi NNE 6.9 mph - N/A   Clear
9:53 PM 64.9 °F 52.0 °F 63% 30.00 in 10.0 mi North 3.5 mph - N/A   Clear
10:53 PM 63.0 °F 52.0 °F 67% 30.01 in 10.0 mi NW 5.8 mph - N/A   Clear
11:53 PM 59.0 °F 52.0 °F 78% 29.99 in 10.0 mi North 6.9 mph - N/A   Clear